Year,Month,Day,Hour,Minute,Value (Times are PST for temperature in C)
2012,07,10,00,00,12.40
2012,07,10,00,01,12.40
2012,07,10,00,02,12.40
2012,07,10,00,03,12.40
2012,07,10,00,04,12.40
2012,07,10,00,05,12.40
2012,07,10,00,06,12.30
2012,07,10,00,07,12.30
2012,07,10,00,08,12.30
2012,07,10,00,09,12.30
2012,07,10,00,10,12.30
2012,07,10,00,11,12.30
2012,07,10,00,12,12.30
2012,07,10,00,13,12.30
2012,07,10,00,14,12.30
2012,07,10,00,15,12.30
2012,07,10,00,16,12.30
2012,07,10,00,17,12.30
2012,07,10,00,18,12.30
2012,07,10,00,19,12.30
2012,07,10,00,20,12.30
2012,07,10,00,21,12.30
2012,07,10,00,22,12.30
2012,07,10,00,23,12.30
2012,07,10,00,24,12.30
2012,07,10,00,25,12.30
2012,07,10,00,26,12.30
2012,07,10,00,27,12.30
2012,07,10,00,28,12.30
2012,07,10,00,29,12.30
2012,07,10,00,30,12.30
2012,07,10,00,31,12.30
2012,07,10,00,32,12.30
2012,07,10,00,33,12.30
2012,07,10,00,34,12.30
2012,07,10,00,35,12.30
2012,07,10,00,36,12.30
2012,07,10,00,37,12.30
2012,07,10,00,38,12.30
2012,07,10,00,39,12.30
2012,07,10,00,40,12.30
2012,07,10,00,41,12.30
2012,07,10,00,42,12.30
2012,07,10,00,43,12.30
2012,07,10,00,44,12.20
2012,07,10,00,45,12.20
2012,07,10,00,46,12.20
2012,07,10,00,47,12.20
2012,07,10,00,48,12.20
2012,07,10,00,49,12.20
2012,07,10,00,50,12.20
2012,07,10,00,51,12.10
2012,07,10,00,52,12.10
2012,07,10,00,53,12.10
2012,07,10,00,54,12.10
2012,07,10,00,55,12.10
2012,07,10,00,56,12.10
2012,07,10,00,57,12.10
2012,07,10,00,58,12.10
2012,07,10,00,59,12.00
2012,07,10,01,00,12.00
2012,07,10,01,01,12.00
2012,07,10,01,02,12.00
2012,07,10,01,03,12.00
2012,07,10,01,04,12.00
2012,07,10,01,05,12.00
2012,07,10,01,06,12.00
2012,07,10,01,07,12.00
2012,07,10,01,08,12.00
2012,07,10,01,09,12.00
2012,07,10,01,10,12.00
2012,07,10,01,11,12.00
2012,07,10,01,12,12.00
2012,07,10,01,13,12.00
2012,07,10,01,14,11.90
2012,07,10,01,15,11.90
2012,07,10,01,16,11.90
2012,07,10,01,17,11.90
2012,07,10,01,18,11.90
2012,07,10,01,19,11.90
2012,07,10,01,20,11.90
2012,07,10,01,21,11.90
2012,07,10,01,22,11.90
2012,07,10,01,23,11.90
2012,07,10,01,24,11.90
2012,07,10,01,25,11.90
2012,07,10,01,26,11.90
2012,07,10,01,27,11.90
2012,07,10,01,28,11.90
2012,07,10,01,29,11.90
2012,07,10,01,30,11.90
2012,07,10,01,31,11.90
2012,07,10,01,32,11.80
2012,07,10,01,33,11.80
2012,07,10,01,34,11.80
2012,07,10,01,35,11.80
2012,07,10,01,36,11.80
2012,07,10,01,37,11.80
2012,07,10,01,38,11.80
2012,07,10,01,39,11.80
2012,07,10,01,40,11.80
2012,07,10,01,41,11.80
2012,07,10,01,42,11.80
2012,07,10,01,43,11.80
2012,07,10,01,44,11.80
2012,07,10,01,45,11.80
2012,07,10,01,46,11.80
2012,07,10,01,47,11.80
2012,07,10,01,48,11.80
2012,07,10,01,49,11.80
2012,07,10,01,50,11.80
2012,07,10,01,51,11.80
2012,07,10,01,52,11.90
2012,07,10,01,53,11.90
2012,07,10,01,54,11.90
2012,07,10,01,55,11.90
2012,07,10,01,56,11.90
2012,07,10,01,57,11.90
2012,07,10,01,58,11.80
2012,07,10,01,59,11.80
2012,07,10,02,00,11.80
2012,07,10,02,01,11.80
2012,07,10,02,02,11.80
2012,07,10,02,03,11.80
2012,07,10,02,04,11.80
2012,07,10,02,05,11.80
2012,07,10,02,06,11.80
2012,07,10,02,07,11.80
2012,07,10,02,08,11.80
2012,07,10,02,09,11.80
2012,07,10,02,10,11.80
2012,07,10,02,11,11.80
2012,07,10,02,12,11.80
2012,07,10,02,13,11.80
2012,07,10,02,14,11.80
2012,07,10,02,15,11.80
2012,07,10,02,16,11.80
2012,07,10,02,17,11.80
2012,07,10,02,18,11.80
2012,07,10,02,19,11.80
2012,07,10,02,20,11.80
2012,07,10,02,21,11.80
2012,07,10,02,22,11.70
2012,07,10,02,23,11.80
2012,07,10,02,24,11.80
2012,07,10,02,25,11.70
2012,07,10,02,26,11.70
2012,07,10,02,27,11.70
2012,07,10,02,28,11.70
2012,07,10,02,29,11.70
2012,07,10,02,30,11.70
2012,07,10,02,31,11.70
2012,07,10,02,32,11.70
2012,07,10,02,33,11.70
2012,07,10,02,34,11.70
2012,07,10,02,35,11.70
2012,07,10,02,36,11.70
2012,07,10,02,37,11.70
2012,07,10,02,38,11.70
2012,07,10,02,39,11.70
2012,07,10,02,40,11.70
2012,07,10,02,41,11.70
2012,07,10,02,42,11.70
2012,07,10,02,43,11.60
2012,07,10,02,44,11.60
2012,07,10,02,45,11.60
2012,07,10,02,46,11.60
2012,07,10,02,47,11.60
2012,07,10,02,48,11.60
2012,07,10,02,49,11.60
2012,07,10,02,50,11.60
2012,07,10,02,51,11.60
2012,07,10,02,52,11.60
2012,07,10,02,53,11.60
2012,07,10,02,54,11.60
2012,07,10,02,55,11.60
2012,07,10,02,56,11.50
2012,07,10,02,57,11.50
2012,07,10,02,58,11.50
2012,07,10,02,59,11.50
2012,07,10,03,00,11.50
2012,07,10,03,01,11.50
2012,07,10,03,02,11.40
2012,07,10,03,03,11.40
2012,07,10,03,04,11.40
2012,07,10,03,05,11.40
2012,07,10,03,06,11.40
2012,07,10,03,07,11.40
2012,07,10,03,08,11.40
2012,07,10,03,09,11.40
2012,07,10,03,10,11.40
2012,07,10,03,11,11.40
2012,07,10,03,12,11.40
2012,07,10,03,13,11.40
2012,07,10,03,14,11.40
2012,07,10,03,15,11.40
2012,07,10,03,16,11.40
2012,07,10,03,17,11.40
2012,07,10,03,18,11.40
2012,07,10,03,19,11.40
2012,07,10,03,20,11.40
2012,07,10,03,21,11.40
2012,07,10,03,22,11.40
2012,07,10,03,23,11.30
2012,07,10,03,24,11.30
2012,07,10,03,25,11.30
2012,07,10,03,26,11.30
2012,07,10,03,27,11.30
2012,07,10,03,28,11.30
2012,07,10,03,29,11.40
2012,07,10,03,30,11.40
2012,07,10,03,31,11.30
2012,07,10,03,32,11.30
2012,07,10,03,33,11.30
2012,07,10,03,34,11.30
2012,07,10,03,35,11.30
2012,07,10,03,36,11.30
2012,07,10,03,37,11.30
2012,07,10,03,38,11.30
2012,07,10,03,39,11.30
2012,07,10,03,40,11.30
2012,07,10,03,41,11.30
2012,07,10,03,42,11.30
2012,07,10,03,43,11.30
2012,07,10,03,44,11.40
2012,07,10,03,45,11.40
2012,07,10,03,46,11.40
2012,07,10,03,47,11.40
2012,07,10,03,48,11.40
2012,07,10,03,49,11.40
2012,07,10,03,50,11.40
2012,07,10,03,51,11.40
2012,07,10,03,52,11.40
2012,07,10,03,53,11.40
2012,07,10,03,54,11.40
2012,07,10,03,55,11.40
2012,07,10,03,56,11.40
2012,07,10,03,57,11.40
2012,07,10,03,58,11.40
2012,07,10,03,59,11.40
2012,07,10,04,00,11.40
2012,07,10,04,01,11.40
2012,07,10,04,02,11.40
2012,07,10,04,03,11.40
2012,07,10,04,04,11.30
2012,07,10,04,05,11.30
2012,07,10,04,06,11.30
2012,07,10,04,07,11.30
2012,07,10,04,08,11.30
2012,07,10,04,09,11.30
2012,07,10,04,10,11.30
2012,07,10,04,11,11.30
2012,07,10,04,12,11.30
2012,07,10,04,13,11.30
2012,07,10,04,14,11.30
2012,07,10,04,15,11.30
2012,07,10,04,16,11.30
2012,07,10,04,17,11.30
2012,07,10,04,18,11.30
2012,07,10,04,19,11.20
2012,07,10,04,20,11.20
2012,07,10,04,21,11.20
2012,07,10,04,22,11.20
2012,07,10,04,23,11.20
2012,07,10,04,24,11.20
2012,07,10,04,25,11.20
2012,07,10,04,26,11.20
2012,07,10,04,27,11.20
2012,07,10,04,28,11.20
2012,07,10,04,29,11.20
2012,07,10,04,30,11.20
2012,07,10,04,31,11.20
2012,07,10,04,32,11.20
2012,07,10,04,33,11.20
2012,07,10,04,34,11.20
2012,07,10,04,35,11.20
2012,07,10,04,36,11.10
2012,07,10,04,37,11.10
2012,07,10,04,38,11.10
2012,07,10,04,39,11.10
2012,07,10,04,40,11.10
2012,07,10,04,41,11.10
2012,07,10,04,42,11.10
2012,07,10,04,43,11.10
2012,07,10,04,44,11.10
2012,07,10,04,45,11.10
2012,07,10,04,46,11.10
2012,07,10,04,47,11.10
2012,07,10,04,48,11.10
2012,07,10,04,49,11.10
2012,07,10,04,50,11.10
2012,07,10,04,51,11.10
2012,07,10,04,52,11.10
2012,07,10,04,53,11.10
2012,07,10,04,54,11.10
2012,07,10,04,55,11.10
2012,07,10,04,56,11.10
2012,07,10,04,57,11.10
2012,07,10,04,58,11.10
2012,07,10,04,59,11.10
2012,07,10,05,00,11.10
2012,07,10,05,01,11.10
2012,07,10,05,02,11.10
2012,07,10,05,03,11.10
2012,07,10,05,04,11.10
2012,07,10,05,05,11.10
2012,07,10,05,06,11.10
2012,07,10,05,07,11.10
2012,07,10,05,08,11.10
2012,07,10,05,09,11.10
2012,07,10,05,10,11.10
2012,07,10,05,11,11.10
2012,07,10,05,12,11.10
2012,07,10,05,13,11.10
2012,07,10,05,14,11.10
2012,07,10,05,15,11.00
2012,07,10,05,16,11.00
2012,07,10,05,17,11.00
2012,07,10,05,18,11.00
2012,07,10,05,19,11.00
2012,07,10,05,20,11.00
2012,07,10,05,21,11.00
2012,07,10,05,22,11.00
2012,07,10,05,23,11.00
2012,07,10,05,24,10.90
2012,07,10,05,25,10.90
2012,07,10,05,26,10.90
2012,07,10,05,27,10.90
2012,07,10,05,28,10.90
2012,07,10,05,29,10.90
2012,07,10,05,30,10.90
2012,07,10,05,31,10.90
2012,07,10,05,32,10.90
2012,07,10,05,33,10.90
2012,07,10,05,34,10.90
2012,07,10,05,35,10.90
2012,07,10,05,36,10.90
2012,07,10,05,37,10.90
2012,07,10,05,38,10.90
2012,07,10,05,39,10.90
2012,07,10,05,40,10.90
2012,07,10,05,41,10.90
2012,07,10,05,42,10.90
2012,07,10,05,43,10.90
2012,07,10,05,44,10.90
2012,07,10,05,45,10.90
2012,07,10,05,46,10.90
2012,07,10,05,47,10.90
2012,07,10,05,48,10.90
2012,07,10,05,49,10.90
2012,07,10,05,50,10.90
2012,07,10,05,51,10.90
2012,07,10,05,52,10.90
2012,07,10,05,53,10.90
2012,07,10,05,54,10.90
2012,07,10,05,55,11.00
2012,07,10,05,56,11.00
2012,07,10,05,57,11.00
2012,07,10,05,58,11.00
2012,07,10,05,59,11.00
2012,07,10,06,00,11.00
2012,07,10,06,01,11.00
2012,07,10,06,02,11.00
2012,07,10,06,03,11.00
2012,07,10,06,04,11.10
2012,07,10,06,05,11.10
2012,07,10,06,06,11.10
2012,07,10,06,07,11.10
2012,07,10,06,08,11.10
2012,07,10,06,09,11.10
2012,07,10,06,10,11.10
2012,07,10,06,11,11.10
2012,07,10,06,12,11.20
2012,07,10,06,13,11.20
2012,07,10,06,14,11.20
2012,07,10,06,15,11.20
2012,07,10,06,16,11.20
2012,07,10,06,17,11.20
2012,07,10,06,18,11.20
2012,07,10,06,19,11.30
2012,07,10,06,20,11.30
2012,07,10,06,21,11.30
2012,07,10,06,22,11.30
2012,07,10,06,23,11.30
2012,07,10,06,24,11.30
2012,07,10,06,25,11.40
2012,07,10,06,26,11.40
2012,07,10,06,27,11.40
2012,07,10,06,28,11.40
2012,07,10,06,29,11.50
2012,07,10,06,30,11.50
2012,07,10,06,31,11.60
2012,07,10,06,32,11.60
2012,07,10,06,33,11.60
2012,07,10,06,34,11.60
2012,07,10,06,35,11.70
2012,07,10,06,36,11.70
2012,07,10,06,37,11.70
2012,07,10,06,38,11.70
2012,07,10,06,39,11.80
2012,07,10,06,40,11.80
2012,07,10,06,41,11.80
2012,07,10,06,42,11.80
2012,07,10,06,43,11.90
2012,07,10,06,44,11.90
2012,07,10,06,45,11.90
2012,07,10,06,46,11.90
2012,07,10,06,47,12.00
2012,07,10,06,48,12.00
2012,07,10,06,49,12.10
2012,07,10,06,50,12.10
2012,07,10,06,51,12.10
2012,07,10,06,52,12.10
2012,07,10,06,53,12.20
2012,07,10,06,54,12.20
2012,07,10,06,55,12.20
2012,07,10,06,56,12.30
2012,07,10,06,57,12.30
2012,07,10,06,58,12.40
2012,07,10,06,59,12.40
2012,07,10,07,00,12.40
2012,07,10,07,01,12.50
2012,07,10,07,02,12.50
2012,07,10,07,03,12.60
2012,07,10,07,04,12.60
2012,07,10,07,05,12.60
2012,07,10,07,06,12.70
2012,07,10,07,07,12.70
2012,07,10,07,08,12.70
2012,07,10,07,09,12.80
2012,07,10,07,10,12.80
2012,07,10,07,11,12.80
2012,07,10,07,12,12.80
2012,07,10,07,13,12.80
2012,07,10,07,14,12.90
2012,07,10,07,15,12.90
2012,07,10,07,16,12.90
2012,07,10,07,17,12.90
2012,07,10,07,18,13.00
2012,07,10,07,19,13.00
2012,07,10,07,20,13.10
2012,07,10,07,21,13.10
2012,07,10,07,22,13.10
2012,07,10,07,23,13.10
2012,07,10,07,24,13.20
2012,07,10,07,25,13.20
2012,07,10,07,26,13.20
2012,07,10,07,27,13.20
2012,07,10,07,28,13.20
2012,07,10,07,29,13.30
2012,07,10,07,30,13.30
2012,07,10,07,31,13.30
2012,07,10,07,32,13.30
2012,07,10,07,33,13.30
2012,07,10,07,34,13.40
2012,07,10,07,35,13.40
2012,07,10,07,36,13.40
2012,07,10,07,37,13.50
2012,07,10,07,38,13.60
2012,07,10,07,39,13.60
2012,07,10,07,40,13.60
2012,07,10,07,41,13.70
2012,07,10,07,42,13.70
2012,07,10,07,43,13.80
2012,07,10,07,44,13.80
2012,07,10,07,45,13.90
2012,07,10,07,46,13.90
2012,07,10,07,47,14.00
2012,07,10,07,48,14.00
2012,07,10,07,49,14.10
2012,07,10,07,50,14.10
2012,07,10,07,51,14.20
2012,07,10,07,52,14.20
2012,07,10,07,53,14.30
2012,07,10,07,54,14.40
2012,07,10,07,55,14.40
2012,07,10,07,56,14.50
2012,07,10,07,57,14.50
2012,07,10,07,58,14.60
2012,07,10,07,59,14.70
2012,07,10,08,00,14.80
2012,07,10,08,01,14.90
2012,07,10,08,02,15.00
2012,07,10,08,03,15.00
2012,07,10,08,04,15.00
2012,07,10,08,05,15.00
2012,07,10,08,06,15.20
2012,07,10,08,07,15.20
2012,07,10,08,08,15.10
2012,07,10,08,09,15.00
2012,07,10,08,10,15.00
2012,07,10,08,11,15.10
2012,07,10,08,12,15.20
2012,07,10,08,13,15.30
2012,07,10,08,14,15.30
2012,07,10,08,15,15.30
2012,07,10,08,16,15.40
2012,07,10,08,17,15.40
2012,07,10,08,18,15.50
2012,07,10,08,19,15.50
2012,07,10,08,20,15.40
2012,07,10,08,21,15.40
2012,07,10,08,22,15.40
2012,07,10,08,23,15.40
2012,07,10,08,24,15.30
2012,07,10,08,25,15.30
2012,07,10,08,26,15.10
2012,07,10,08,27,15.00
2012,07,10,08,28,15.00
2012,07,10,08,29,14.90
2012,07,10,08,30,14.70
2012,07,10,08,31,14.60
2012,07,10,08,32,14.50
2012,07,10,08,33,14.40
2012,07,10,08,34,14.30
2012,07,10,08,35,14.20
2012,07,10,08,36,14.20
2012,07,10,08,37,14.20
2012,07,10,08,38,14.20
2012,07,10,08,39,14.20
2012,07,10,08,40,14.20
2012,07,10,08,41,14.20
2012,07,10,08,42,14.20
2012,07,10,08,43,14.30
2012,07,10,08,44,14.30
2012,07,10,08,45,14.40
2012,07,10,08,46,14.40
2012,07,10,08,47,14.50
2012,07,10,08,48,14.60
2012,07,10,08,49,14.60
2012,07,10,08,50,14.70
2012,07,10,08,51,14.70
2012,07,10,08,52,14.80
2012,07,10,08,53,14.80
2012,07,10,08,54,15.00
2012,07,10,08,55,15.00
2012,07,10,08,56,15.00
2012,07,10,08,57,15.00
2012,07,10,08,58,15.10
2012,07,10,08,59,15.20
2012,07,10,09,00,15.30
2012,07,10,09,01,15.30
2012,07,10,09,02,15.40
2012,07,10,09,03,15.30
2012,07,10,09,04,15.30
2012,07,10,09,05,15.30
2012,07,10,09,06,15.30
2012,07,10,09,07,15.40
2012,07,10,09,08,15.40
2012,07,10,09,09,15.40
2012,07,10,09,10,15.40
2012,07,10,09,11,15.40
2012,07,10,09,12,15.40
2012,07,10,09,13,15.50
2012,07,10,09,14,15.50
2012,07,10,09,15,15.60
2012,07,10,09,16,15.60
2012,07,10,09,17,15.60
2012,07,10,09,18,15.60
2012,07,10,09,19,15.70
2012,07,10,09,20,15.70
2012,07,10,09,21,15.80
2012,07,10,09,22,15.80
2012,07,10,09,23,15.90
2012,07,10,09,24,15.90
2012,07,10,09,25,16.00
2012,07,10,09,26,16.10
2012,07,10,09,27,16.10
2012,07,10,09,28,16.10
2012,07,10,09,29,16.10
2012,07,10,09,30,16.00
2012,07,10,09,31,16.00
2012,07,10,09,32,15.80
2012,07,10,09,33,15.70
2012,07,10,09,34,15.60
2012,07,10,09,35,15.60
2012,07,10,09,36,15.50
2012,07,10,09,37,15.50
2012,07,10,09,38,15.50
2012,07,10,09,39,15.40
2012,07,10,09,40,15.40
2012,07,10,09,41,15.30
2012,07,10,09,42,15.30
2012,07,10,09,43,15.30
2012,07,10,09,44,15.20
2012,07,10,09,45,15.20
2012,07,10,09,46,15.20
2012,07,10,09,47,15.30
2012,07,10,09,48,15.40
2012,07,10,09,49,15.50
2012,07,10,09,50,15.60
2012,07,10,09,51,15.60
2012,07,10,09,52,15.80
2012,07,10,09,53,15.90
2012,07,10,09,54,15.90
2012,07,10,09,55,16.00
2012,07,10,09,56,16.10
2012,07,10,09,57,16.20
2012,07,10,09,58,16.20
2012,07,10,09,59,16.30
2012,07,10,10,00,16.40
2012,07,10,10,01,16.40
2012,07,10,10,02,16.40
2012,07,10,10,03,16.40
2012,07,10,10,04,16.50
2012,07,10,10,05,16.50
2012,07,10,10,06,16.50
2012,07,10,10,07,16.60
2012,07,10,10,08,16.60
2012,07,10,10,09,16.50
2012,07,10,10,10,16.50
2012,07,10,10,11,16.50
2012,07,10,10,12,16.50
2012,07,10,10,13,16.50
2012,07,10,10,14,16.50
2012,07,10,10,15,16.40
2012,07,10,10,16,16.40
2012,07,10,10,17,16.40
2012,07,10,10,18,16.40
2012,07,10,10,19,16.40
2012,07,10,10,20,16.50
2012,07,10,10,21,16.50
2012,07,10,10,22,16.50
2012,07,10,10,23,16.60
2012,07,10,10,24,16.60
2012,07,10,10,25,16.60
2012,07,10,10,26,16.70
2012,07,10,10,27,16.70
2012,07,10,10,28,16.70
2012,07,10,10,29,16.80
2012,07,10,10,30,16.80
2012,07,10,10,31,16.90
2012,07,10,10,32,17.00
2012,07,10,10,33,17.00
2012,07,10,10,34,17.00
2012,07,10,10,35,16.90
2012,07,10,10,36,16.90
2012,07,10,10,37,16.90
2012,07,10,10,38,16.90
2012,07,10,10,39,16.90
2012,07,10,10,40,16.90
2012,07,10,10,41,16.90
2012,07,10,10,42,17.00
2012,07,10,10,43,17.00
2012,07,10,10,44,17.00
2012,07,10,10,45,17.10
2012,07,10,10,46,17.20
2012,07,10,10,47,17.30
2012,07,10,10,48,17.30
2012,07,10,10,49,17.30
2012,07,10,10,50,17.40
2012,07,10,10,51,17.50
2012,07,10,10,52,17.60
2012,07,10,10,53,17.60
2012,07,10,10,54,17.60
2012,07,10,10,55,17.70
2012,07,10,10,56,17.70
2012,07,10,10,57,17.70
2012,07,10,10,58,17.70
2012,07,10,10,59,17.70
2012,07,10,11,00,17.70
2012,07,10,11,01,17.70
2012,07,10,11,02,17.80
2012,07,10,11,03,17.80
2012,07,10,11,04,17.80
2012,07,10,11,05,17.80
2012,07,10,11,06,17.80
2012,07,10,11,07,17.80
2012,07,10,11,08,17.80
2012,07,10,11,09,17.80
2012,07,10,11,10,17.80
2012,07,10,11,11,17.80
2012,07,10,11,12,17.70
2012,07,10,11,13,17.70
2012,07,10,11,14,17.70
2012,07,10,11,15,17.60
2012,07,10,11,16,17.60
2012,07,10,11,17,17.60
2012,07,10,11,18,17.60
2012,07,10,11,19,17.60
2012,07,10,11,20,17.60
2012,07,10,11,21,17.60
2012,07,10,11,22,17.60
2012,07,10,11,23,17.60
2012,07,10,11,24,17.60
2012,07,10,11,25,17.60
2012,07,10,11,26,17.60
2012,07,10,11,27,17.60
2012,07,10,11,28,17.60
2012,07,10,11,29,17.60
2012,07,10,11,30,17.70
2012,07,10,11,31,17.70
2012,07,10,11,32,17.80
2012,07,10,11,33,17.90
2012,07,10,11,34,18.00
2012,07,10,11,35,18.20
2012,07,10,11,36,18.30
2012,07,10,11,37,18.30
2012,07,10,11,38,18.30
2012,07,10,11,39,18.30
2012,07,10,11,40,18.20
2012,07,10,11,41,18.10
2012,07,10,11,42,18.00
2012,07,10,11,43,17.90
2012,07,10,11,44,17.80
2012,07,10,11,45,17.70
2012,07,10,11,46,17.50
2012,07,10,11,47,17.40
2012,07,10,11,48,17.30
2012,07,10,11,49,17.20
2012,07,10,11,50,17.20
2012,07,10,11,51,17.10
2012,07,10,11,52,17.00
2012,07,10,11,53,16.90
2012,07,10,11,54,16.80
2012,07,10,11,55,16.80
2012,07,10,11,56,16.70
2012,07,10,11,57,16.70
2012,07,10,11,58,16.70
2012,07,10,11,59,16.60
2012,07,10,12,00,16.60
2012,07,10,12,01,16.60
2012,07,10,12,02,16.50
2012,07,10,12,03,16.40
2012,07,10,12,04,16.40
2012,07,10,12,05,16.40
2012,07,10,12,06,16.40
2012,07,10,12,07,16.40
2012,07,10,12,08,16.40
2012,07,10,12,09,16.50
2012,07,10,12,10,16.50
2012,07,10,12,11,16.40
2012,07,10,12,12,16.40
2012,07,10,12,13,16.30
2012,07,10,12,14,16.30
2012,07,10,12,15,16.20
2012,07,10,12,16,16.20
2012,07,10,12,17,16.20
2012,07,10,12,18,16.00
2012,07,10,12,19,15.90
2012,07,10,12,20,15.80
2012,07,10,12,21,15.80
2012,07,10,12,22,15.70
2012,07,10,12,23,15.60
2012,07,10,12,24,15.60
2012,07,10,12,25,15.50
2012,07,10,12,26,15.50
2012,07,10,12,27,15.50
2012,07,10,12,28,15.60
2012,07,10,12,29,15.70
2012,07,10,12,30,15.70
2012,07,10,12,31,15.70
2012,07,10,12,32,15.80
2012,07,10,12,33,15.90
2012,07,10,12,34,16.00
2012,07,10,12,35,16.20
2012,07,10,12,36,16.40
2012,07,10,12,37,16.50
2012,07,10,12,38,16.70
2012,07,10,12,39,16.90
2012,07,10,12,40,17.00
2012,07,10,12,41,17.10
2012,07,10,12,42,17.20
2012,07,10,12,43,17.30
2012,07,10,12,44,17.40
2012,07,10,12,45,17.50
2012,07,10,12,46,17.60
2012,07,10,12,47,17.70
2012,07,10,12,48,17.70
2012,07,10,12,49,17.70
2012,07,10,12,50,17.80
2012,07,10,12,51,17.80
2012,07,10,12,52,17.70
2012,07,10,12,53,17.60
2012,07,10,12,54,17.50
2012,07,10,12,55,17.50
2012,07,10,12,56,17.50
2012,07,10,12,57,17.40
2012,07,10,12,58,17.30
2012,07,10,12,59,17.10
2012,07,10,13,00,16.90
2012,07,10,13,01,16.80
2012,07,10,13,02,16.70
2012,07,10,13,03,16.80
2012,07,10,13,04,16.90
2012,07,10,13,05,17.00
2012,07,10,13,06,17.00
2012,07,10,13,07,17.10
2012,07,10,13,08,17.20
2012,07,10,13,09,17.10
2012,07,10,13,10,17.00
2012,07,10,13,11,16.90
2012,07,10,13,12,16.90
2012,07,10,13,13,16.90
2012,07,10,13,14,17.00
2012,07,10,13,15,16.90
2012,07,10,13,16,16.80
2012,07,10,13,17,16.70
2012,07,10,13,18,16.90
2012,07,10,13,19,17.00
2012,07,10,13,20,17.20
2012,07,10,13,21,17.30
2012,07,10,13,22,17.50
2012,07,10,13,23,17.60
2012,07,10,13,24,17.50
2012,07,10,13,25,17.50
2012,07,10,13,26,17.50
2012,07,10,13,27,17.50
2012,07,10,13,28,17.50
2012,07,10,13,29,17.50
2012,07,10,13,30,17.40
2012,07,10,13,31,17.30
2012,07,10,13,32,17.30
2012,07,10,13,33,17.40
2012,07,10,13,34,17.50
2012,07,10,13,35,17.50
2012,07,10,13,36,17.60
2012,07,10,13,37,17.50
2012,07,10,13,38,17.50
2012,07,10,13,39,17.50
2012,07,10,13,40,17.40
2012,07,10,13,41,17.30
2012,07,10,13,42,17.30
2012,07,10,13,43,17.30
2012,07,10,13,44,17.30
2012,07,10,13,45,17.30
2012,07,10,13,46,17.30
2012,07,10,13,47,17.30
2012,07,10,13,48,17.30
2012,07,10,13,49,17.30
2012,07,10,13,50,17.30
2012,07,10,13,51,17.30
2012,07,10,13,52,17.30
2012,07,10,13,53,17.40
2012,07,10,13,54,17.40
2012,07,10,13,55,17.50
2012,07,10,13,56,17.60
2012,07,10,13,57,17.60
2012,07,10,13,58,17.60
2012,07,10,13,59,17.70
2012,07,10,14,00,17.70
2012,07,10,14,01,17.80
2012,07,10,14,02,17.80
2012,07,10,14,03,17.80
2012,07,10,14,04,17.70
2012,07,10,14,05,17.70
2012,07,10,14,06,17.70
2012,07,10,14,07,17.70
2012,07,10,14,08,17.80
2012,07,10,14,09,17.80
2012,07,10,14,10,17.80
2012,07,10,14,11,17.80
2012,07,10,14,12,17.90
2012,07,10,14,13,17.90
2012,07,10,14,14,18.00
2012,07,10,14,15,18.00
2012,07,10,14,16,18.10
2012,07,10,14,17,18.30
2012,07,10,14,18,18.40
2012,07,10,14,19,18.50
2012,07,10,14,20,18.60
2012,07,10,14,21,18.70
2012,07,10,14,22,18.80
2012,07,10,14,23,18.90
2012,07,10,14,24,19.00
2012,07,10,14,25,19.10
2012,07,10,14,26,19.20
2012,07,10,14,27,19.20
2012,07,10,14,28,19.20
2012,07,10,14,29,19.20
2012,07,10,14,30,19.20
2012,07,10,14,31,19.30
2012,07,10,14,32,19.30
2012,07,10,14,33,19.40
2012,07,10,14,34,19.40
2012,07,10,14,35,19.30
2012,07,10,14,36,19.30
2012,07,10,14,37,19.30
2012,07,10,14,38,19.30
2012,07,10,14,39,19.40
2012,07,10,14,40,19.40
2012,07,10,14,41,19.30
2012,07,10,14,42,19.30
2012,07,10,14,43,19.40
2012,07,10,14,44,19.50
2012,07,10,14,45,19.50
2012,07,10,14,46,19.60
2012,07,10,14,47,19.60
2012,07,10,14,48,19.60
2012,07,10,14,49,19.50
2012,07,10,14,50,19.50
2012,07,10,14,51,19.60
2012,07,10,14,52,19.60
2012,07,10,14,53,19.60
2012,07,10,14,54,19.50
2012,07,10,14,55,19.50
2012,07,10,14,56,19.50
2012,07,10,14,57,19.50
2012,07,10,14,58,19.50
2012,07,10,14,59,19.60
2012,07,10,15,00,19.60
2012,07,10,15,01,19.60
2012,07,10,15,02,19.60
2012,07,10,15,03,19.60
2012,07,10,15,04,19.60
2012,07,10,15,05,19.70
2012,07,10,15,06,19.70
2012,07,10,15,07,19.70
2012,07,10,15,08,19.70
2012,07,10,15,09,19.60
2012,07,10,15,10,19.50
2012,07,10,15,11,19.40
2012,07,10,15,12,19.40
2012,07,10,15,13,19.40
2012,07,10,15,14,19.40
2012,07,10,15,15,19.50
2012,07,10,15,16,19.60
2012,07,10,15,17,19.70
2012,07,10,15,18,19.70
2012,07,10,15,19,19.80
2012,07,10,15,20,19.90
2012,07,10,15,21,20.00
2012,07,10,15,22,20.10
2012,07,10,15,23,20.20
2012,07,10,15,24,20.30
2012,07,10,15,25,20.40
2012,07,10,15,26,20.60
2012,07,10,15,27,20.80
2012,07,10,15,28,20.80
2012,07,10,15,29,20.80
2012,07,10,15,30,20.70
2012,07,10,15,31,20.70
2012,07,10,15,32,20.70
2012,07,10,15,33,20.80
2012,07,10,15,34,20.80
2012,07,10,15,35,20.70
2012,07,10,15,36,20.70
2012,07,10,15,37,20.70
2012,07,10,15,38,20.70
2012,07,10,15,39,20.70
2012,07,10,15,40,20.70
2012,07,10,15,41,20.70
2012,07,10,15,42,20.70
2012,07,10,15,43,20.70
2012,07,10,15,44,20.70
2012,07,10,15,45,20.60
2012,07,10,15,46,20.50
2012,07,10,15,47,20.50
2012,07,10,15,48,20.50
2012,07,10,15,49,20.50
2012,07,10,15,50,20.50
2012,07,10,15,51,20.60
2012,07,10,15,52,20.70
2012,07,10,15,53,20.90
2012,07,10,15,54,21.10
2012,07,10,15,55,21.20
2012,07,10,15,56,21.40
2012,07,10,15,57,21.40
2012,07,10,15,58,21.40
2012,07,10,15,59,21.50
2012,07,10,16,00,21.60
2012,07,10,16,01,21.80
2012,07,10,16,02,21.90
2012,07,10,16,03,22.00
2012,07,10,16,04,22.00
2012,07,10,16,05,22.10
2012,07,10,16,06,22.20
2012,07,10,16,07,22.20
2012,07,10,16,08,22.30
2012,07,10,16,09,22.30
2012,07,10,16,10,22.30
2012,07,10,16,11,22.40
2012,07,10,16,12,22.50
2012,07,10,16,13,22.60
2012,07,10,16,14,22.50
2012,07,10,16,15,22.30
2012,07,10,16,16,22.10
2012,07,10,16,17,21.90
2012,07,10,16,18,21.80
2012,07,10,16,19,21.80
2012,07,10,16,20,21.80
2012,07,10,16,21,21.80
2012,07,10,16,22,21.80
2012,07,10,16,23,21.90
2012,07,10,16,24,22.00
2012,07,10,16,25,22.00
2012,07,10,16,26,21.90
2012,07,10,16,27,21.90
2012,07,10,16,28,21.90
2012,07,10,16,29,21.90
2012,07,10,16,30,21.90
2012,07,10,16,31,21.80
2012,07,10,16,32,21.70
2012,07,10,16,33,21.60
2012,07,10,16,34,21.60
2012,07,10,16,35,21.40
2012,07,10,16,36,21.20
2012,07,10,16,37,21.00
2012,07,10,16,38,20.80
2012,07,10,16,39,20.80
2012,07,10,16,40,20.90
2012,07,10,16,41,21.00
2012,07,10,16,42,21.10
2012,07,10,16,43,21.10
2012,07,10,16,44,21.00
2012,07,10,16,45,20.90
2012,07,10,16,46,20.70
2012,07,10,16,47,20.50
2012,07,10,16,48,20.30
2012,07,10,16,49,20.20
2012,07,10,16,50,20.10
2012,07,10,16,51,20.10
2012,07,10,16,52,20.20
2012,07,10,16,53,20.30
2012,07,10,16,54,20.30
2012,07,10,16,55,20.30
2012,07,10,16,56,20.40
2012,07,10,16,57,20.50
2012,07,10,16,58,20.50
2012,07,10,16,59,20.50
2012,07,10,17,00,20.40
2012,07,10,17,01,20.40
2012,07,10,17,02,20.50
2012,07,10,17,03,20.50
2012,07,10,17,04,20.40
2012,07,10,17,05,20.30
2012,07,10,17,06,20.20
2012,07,10,17,07,20.20
2012,07,10,17,08,20.10
2012,07,10,17,09,20.10
2012,07,10,17,10,20.10
2012,07,10,17,11,20.20
2012,07,10,17,12,20.30
2012,07,10,17,13,20.30
2012,07,10,17,14,20.40
2012,07,10,17,15,20.40
2012,07,10,17,16,20.50
2012,07,10,17,17,20.60
2012,07,10,17,18,20.80
2012,07,10,17,19,20.80